Year,Month,Day,Hour,Minute,Value (Times are PST for temperature in C)
2014,05,01,00,00,13.80
2014,05,01,00,01,13.80
2014,05,01,00,02,13.80
2014,05,01,00,03,13.80
2014,05,01,00,04,13.90
2014,05,01,00,05,13.90
2014,05,01,00,06,13.90
2014,05,01,00,07,13.90
2014,05,01,00,08,13.90
2014,05,01,00,09,14.00
2014,05,01,00,10,14.00
2014,05,01,00,11,14.00
2014,05,01,00,12,14.10
2014,05,01,00,13,14.10
2014,05,01,00,14,14.10
2014,05,01,00,15,14.10
2014,05,01,00,16,14.20
2014,05,01,00,17,14.20
2014,05,01,00,18,14.20
2014,05,01,00,19,14.20
2014,05,01,00,20,14.20
2014,05,01,00,21,14.20
2014,05,01,00,22,14.20
2014,05,01,00,23,14.20
2014,05,01,00,24,14.20
2014,05,01,00,25,14.30
2014,05,01,00,26,14.20
2014,05,01,00,27,14.20
2014,05,01,00,28,14.20
2014,05,01,00,29,14.20
2014,05,01,00,30,14.20
2014,05,01,00,31,14.20
2014,05,01,00,32,14.20
2014,05,01,00,33,14.20
2014,05,01,00,34,14.20
2014,05,01,00,35,14.10
2014,05,01,00,36,14.10
2014,05,01,00,37,14.10
2014,05,01,00,38,14.00
2014,05,01,00,39,14.00
2014,05,01,00,40,14.10
2014,05,01,00,41,14.10
2014,05,01,00,42,14.10
2014,05,01,00,43,14.10
2014,05,01,00,44,14.10
2014,05,01,00,45,14.10
2014,05,01,00,46,14.10
2014,05,01,00,47,14.10
2014,05,01,00,48,14.00
2014,05,01,00,49,14.00
2014,05,01,00,50,13.90
2014,05,01,00,51,13.90
2014,05,01,00,52,13.90
2014,05,01,00,53,13.90
2014,05,01,00,54,13.90
2014,05,01,00,55,13.90
2014,05,01,00,56,13.90
2014,05,01,00,57,13.90
2014,05,01,00,58,13.90
2014,05,01,00,59,13.90
2014,05,01,01,00,13.80
2014,05,01,01,01,13.80
2014,05,01,01,02,13.80
2014,05,01,01,03,13.80
2014,05,01,01,04,13.70
2014,05,01,01,05,13.70
2014,05,01,01,06,13.70
2014,05,01,01,07,13.70
2014,05,01,01,08,13.70
2014,05,01,01,09,13.70
2014,05,01,01,10,13.70
2014,05,01,01,11,13.70
2014,05,01,01,12,13.70
2014,05,01,01,13,13.70
2014,05,01,01,14,13.80
2014,05,01,01,15,13.80
2014,05,01,01,16,13.80
2014,05,01,01,17,13.80
2014,05,01,01,18,13.80
2014,05,01,01,19,13.90
2014,05,01,01,20,13.90
2014,05,01,01,21,13.90
2014,05,01,01,22,13.80
2014,05,01,01,23,13.80
2014,05,01,01,24,13.80
2014,05,01,01,25,13.80
2014,05,01,01,26,13.80
2014,05,01,01,27,13.80
2014,05,01,01,28,13.80
2014,05,01,01,29,13.80
2014,05,01,01,30,13.80
2014,05,01,01,31,13.80
2014,05,01,01,32,13.80
2014,05,01,01,33,13.80
2014,05,01,01,34,13.80
2014,05,01,01,35,13.80
2014,05,01,01,36,13.80
2014,05,01,01,37,13.80
2014,05,01,01,38,13.80
2014,05,01,01,39,13.80
2014,05,01,01,40,13.90
2014,05,01,01,41,14.00
2014,05,01,01,42,14.00
2014,05,01,01,43,14.10
2014,05,01,01,44,14.10
2014,05,01,01,45,14.10
2014,05,01,01,46,14.00
2014,05,01,01,47,14.00
2014,05,01,01,48,14.00
2014,05,01,01,49,13.90
2014,05,01,01,50,13.90
2014,05,01,01,51,13.90
2014,05,01,01,52,13.80
2014,05,01,01,53,13.80
2014,05,01,01,54,13.80
2014,05,01,01,55,13.80
2014,05,01,01,56,13.80
2014,05,01,01,57,13.70
2014,05,01,01,58,13.70
2014,05,01,01,59,13.70
2014,05,01,02,00,13.60
2014,05,01,02,01,13.60
2014,05,01,02,02,13.60
2014,05,01,02,03,13.50
2014,05,01,02,04,13.50
2014,05,01,02,05,13.60
2014,05,01,02,06,13.60
2014,05,01,02,07,13.60
2014,05,01,02,08,13.60
2014,05,01,02,09,13.50
2014,05,01,02,10,13.50
2014,05,01,02,11,13.60
2014,05,01,02,12,13.70
2014,05,01,02,13,13.70
2014,05,01,02,14,13.70
2014,05,01,02,15,13.70
2014,05,01,02,16,13.60
2014,05,01,02,17,13.60
2014,05,01,02,18,13.60
2014,05,01,02,19,13.50
2014,05,01,02,20,13.50
2014,05,01,02,21,13.40
2014,05,01,02,22,13.30
2014,05,01,02,23,13.30
2014,05,01,02,24,13.30
2014,05,01,02,25,13.30
2014,05,01,02,26,13.30
2014,05,01,02,27,13.30
2014,05,01,02,28,13.30
2014,05,01,02,29,13.30
2014,05,01,02,30,13.30
2014,05,01,02,31,13.30
2014,05,01,02,32,13.30
2014,05,01,02,33,13.30
2014,05,01,02,34,13.30
2014,05,01,02,35,13.30
2014,05,01,02,36,13.30
2014,05,01,02,37,13.30
2014,05,01,02,38,13.40
2014,05,01,02,39,13.40
2014,05,01,02,40,13.50
2014,05,01,02,41,13.60
2014,05,01,02,42,13.60
2014,05,01,02,43,13.60
2014,05,01,02,44,13.60
2014,05,01,02,45,13.60
2014,05,01,02,46,13.60
2014,05,01,02,47,13.50
2014,05,01,02,48,13.50
2014,05,01,02,49,13.40
2014,05,01,02,50,13.40
2014,05,01,02,51,13.40
2014,05,01,02,52,13.30
2014,05,01,02,53,13.30
2014,05,01,02,54,13.30
2014,05,01,02,55,13.20
2014,05,01,02,56,13.20
2014,05,01,02,57,13.20
2014,05,01,02,58,13.10
2014,05,01,02,59,13.10
2014,05,01,03,00,13.10
2014,05,01,03,01,13.10
2014,05,01,03,02,13.10
2014,05,01,03,03,13.10
2014,05,01,03,04,13.10
2014,05,01,03,05,13.10
2014,05,01,03,06,13.20
2014,05,01,03,07,13.20
2014,05,01,03,08,13.30
2014,05,01,03,09,13.40
2014,05,01,03,10,13.50
2014,05,01,03,11,13.50
2014,05,01,03,12,13.60
2014,05,01,03,13,13.70
2014,05,01,03,14,13.90
2014,05,01,03,15,14.10
2014,05,01,03,16,14.20
2014,05,01,03,17,14.30
2014,05,01,03,18,14.40
2014,05,01,03,19,14.50
2014,05,01,03,20,14.60
2014,05,01,03,21,14.80
2014,05,01,03,22,15.00
2014,05,01,03,23,15.00
2014,05,01,03,24,15.10
2014,05,01,03,25,15.30
2014,05,01,03,26,15.40
2014,05,01,03,27,15.50
2014,05,01,03,28,15.60
2014,05,01,03,29,15.60
2014,05,01,03,30,15.70
2014,05,01,03,31,15.70
2014,05,01,03,32,15.80
2014,05,01,03,33,15.80
2014,05,01,03,34,15.80
2014,05,01,03,35,15.80
2014,05,01,03,36,15.80
2014,05,01,03,37,15.70
2014,05,01,03,38,15.70
2014,05,01,03,39,15.70
2014,05,01,03,40,15.60
2014,05,01,03,41,15.50
2014,05,01,03,42,15.40
2014,05,01,03,43,15.30
2014,05,01,03,44,15.20
2014,05,01,03,45,15.00
2014,05,01,03,46,15.00
2014,05,01,03,47,15.00
2014,05,01,03,48,15.00
2014,05,01,03,49,14.90
2014,05,01,03,50,14.80
2014,05,01,03,51,14.80
2014,05,01,03,52,14.70
2014,05,01,03,53,14.60
2014,05,01,03,54,14.50
2014,05,01,03,55,14.40
2014,05,01,03,56,14.30
2014,05,01,03,57,14.20
2014,05,01,03,58,14.10
2014,05,01,03,59,14.00
2014,05,01,04,00,13.90
2014,05,01,04,01,13.80
2014,05,01,04,02,13.80
2014,05,01,04,03,13.70
2014,05,01,04,04,13.60
2014,05,01,04,05,13.50
2014,05,01,04,06,13.40
2014,05,01,04,07,13.30
2014,05,01,04,08,13.30
2014,05,01,04,09,13.20
2014,05,01,04,10,13.20
2014,05,01,04,11,13.30
2014,05,01,04,12,13.30
2014,05,01,04,13,13.40
2014,05,01,04,14,13.50
2014,05,01,04,15,13.60
2014,05,01,04,16,13.60
2014,05,01,04,17,13.70
2014,05,01,04,18,13.80
2014,05,01,04,19,13.90
2014,05,01,04,20,14.00
2014,05,01,04,21,14.10
2014,05,01,04,22,14.20
2014,05,01,04,23,14.30
2014,05,01,04,24,14.30
2014,05,01,04,25,14.30
2014,05,01,04,26,14.30
2014,05,01,04,27,14.30
2014,05,01,04,28,14.30
2014,05,01,04,29,14.30
2014,05,01,04,30,14.20
2014,05,01,04,31,14.10
2014,05,01,04,32,14.10
2014,05,01,04,33,14.10
2014,05,01,04,34,14.10
2014,05,01,04,35,14.00
2014,05,01,04,36,14.10
2014,05,01,04,37,14.10
2014,05,01,04,38,14.10
2014,05,01,04,39,14.10
2014,05,01,04,40,14.10
2014,05,01,04,41,14.10
2014,05,01,04,42,14.10
2014,05,01,04,43,14.20
2014,05,01,04,44,14.20
2014,05,01,04,45,14.30
2014,05,01,04,46,14.30
2014,05,01,04,47,14.40
2014,05,01,04,48,14.40
2014,05,01,04,49,14.50
2014,05,01,04,50,14.50
2014,05,01,04,51,14.60
2014,05,01,04,52,14.60
2014,05,01,04,53,14.60
2014,05,01,04,54,14.70
2014,05,01,04,55,14.70
2014,05,01,04,56,14.70
2014,05,01,04,57,14.80
2014,05,01,04,58,14.80
2014,05,01,04,59,14.80
2014,05,01,05,00,14.80
2014,05,01,05,01,14.80
2014,05,01,05,02,14.80
2014,05,01,05,03,14.80
2014,05,01,05,04,14.80
2014,05,01,05,05,14.80
2014,05,01,05,06,14.80
2014,05,01,05,07,14.90
2014,05,01,05,08,14.90
2014,05,01,05,09,14.90
2014,05,01,05,10,14.90
2014,05,01,05,11,14.90
2014,05,01,05,12,14.90
2014,05,01,05,13,14.90
2014,05,01,05,14,14.90
2014,05,01,05,15,14.90
2014,05,01,05,16,14.90
2014,05,01,05,17,14.90
2014,05,01,05,18,14.90
2014,05,01,05,19,14.90
2014,05,01,05,20,14.80
2014,05,01,05,21,14.80
2014,05,01,05,22,14.80
2014,05,01,05,23,14.80
2014,05,01,05,24,14.70
2014,05,01,05,25,14.70
2014,05,01,05,26,14.70
2014,05,01,05,27,14.60
2014,05,01,05,28,14.60
2014,05,01,05,29,14.60
2014,05,01,05,30,14.50
2014,05,01,05,31,14.50
2014,05,01,05,32,14.40
2014,05,01,05,33,14.40
2014,05,01,05,34,14.30
2014,05,01,05,35,14.30
2014,05,01,05,36,14.20
2014,05,01,05,37,14.20
2014,05,01,05,38,14.10
2014,05,01,05,39,14.10
2014,05,01,05,40,14.00
2014,05,01,05,41,13.90
2014,05,01,05,42,13.90
2014,05,01,05,43,13.90
2014,05,01,05,44,13.80
2014,05,01,05,45,13.80
2014,05,01,05,46,13.80
2014,05,01,05,47,13.80
2014,05,01,05,48,13.70
2014,05,01,05,49,13.70
2014,05,01,05,50,13.70
2014,05,01,05,51,13.60
2014,05,01,05,52,13.60
2014,05,01,05,53,13.50
2014,05,01,05,54,13.40
2014,05,01,05,55,13.40
2014,05,01,05,56,13.30
2014,05,01,05,57,13.20
2014,05,01,05,58,13.20
2014,05,01,05,59,13.20
2014,05,01,06,00,13.20
2014,05,01,06,01,13.20
2014,05,01,06,02,13.20
2014,05,01,06,03,13.20
2014,05,01,06,04,13.20
2014,05,01,06,05,13.20
2014,05,01,06,06,13.20
2014,05,01,06,07,13.20
2014,05,01,06,08,13.20
2014,05,01,06,09,13.30
2014,05,01,06,10,13.30
2014,05,01,06,11,13.30
2014,05,01,06,12,13.40
2014,05,01,06,13,13.50
2014,05,01,06,14,13.60
2014,05,01,06,15,13.70
2014,05,01,06,16,13.80
2014,05,01,06,17,13.90
2014,05,01,06,18,14.00
2014,05,01,06,19,14.10
2014,05,01,06,20,14.10
2014,05,01,06,21,14.20
2014,05,01,06,22,14.20
2014,05,01,06,23,14.30
2014,05,01,06,24,14.30
2014,05,01,06,25,14.30
2014,05,01,06,26,14.20
2014,05,01,06,27,14.20
2014,05,01,06,28,14.20
2014,05,01,06,29,14.10
2014,05,01,06,30,14.10
2014,05,01,06,31,14.00
2014,05,01,06,32,13.90
2014,05,01,06,33,13.80
2014,05,01,06,34,13.80
2014,05,01,06,35,13.70
2014,05,01,06,36,13.70
2014,05,01,06,37,13.60
2014,05,01,06,38,13.50
2014,05,01,06,39,13.40
2014,05,01,06,40,13.40
2014,05,01,06,41,13.30
2014,05,01,06,42,13.20
2014,05,01,06,43,13.10
2014,05,01,06,44,13.10
2014,05,01,06,45,13.10
2014,05,01,06,46,13.10
2014,05,01,06,47,13.10
2014,05,01,06,48,13.10
2014,05,01,06,49,13.20
2014,05,01,06,50,13.20
2014,05,01,06,51,13.20
2014,05,01,06,52,13.20
2014,05,01,06,53,13.20
2014,05,01,06,54,13.20
2014,05,01,06,55,13.30
2014,05,01,06,56,13.40
2014,05,01,06,57,13.50
2014,05,01,06,58,13.70
2014,05,01,06,59,13.80
2014,05,01,07,00,14.00
2014,05,01,07,01,14.10
2014,05,01,07,02,14.30
2014,05,01,07,03,14.40
2014,05,01,07,04,14.50
2014,05,01,07,05,14.60
2014,05,01,07,06,14.70
2014,05,01,07,07,14.70
2014,05,01,07,08,14.80
2014,05,01,07,09,14.80
2014,05,01,07,10,14.90
2014,05,01,07,11,14.90
2014,05,01,07,12,15.00
2014,05,01,07,13,15.00
2014,05,01,07,14,15.00
2014,05,01,07,15,15.00
2014,05,01,07,16,15.00
2014,05,01,07,17,15.00
2014,05,01,07,18,15.00
2014,05,01,07,19,15.00
2014,05,01,07,20,15.00
2014,05,01,07,21,15.00
2014,05,01,07,22,15.00
2014,05,01,07,23,15.00
2014,05,01,07,24,15.00
2014,05,01,07,25,15.00
2014,05,01,07,26,15.10
2014,05,01,07,27,15.10
2014,05,01,07,28,15.00
2014,05,01,07,29,15.00
2014,05,01,07,30,15.00
2014,05,01,07,31,15.00
2014,05,01,07,32,14.90
2014,05,01,07,33,14.70
2014,05,01,07,34,14.40
2014,05,01,07,35,14.20
2014,05,01,07,36,14.00
2014,05,01,07,37,13.80
2014,05,01,07,38,13.70
2014,05,01,07,39,13.70
2014,05,01,07,40,13.60
2014,05,01,07,41,13.60
2014,05,01,07,42,13.60
2014,05,01,07,43,13.60
2014,05,01,07,44,13.60
2014,05,01,07,45,13.60
2014,05,01,07,46,13.70
2014,05,01,07,47,13.80
2014,05,01,07,48,14.00
2014,05,01,07,49,14.10
2014,05,01,07,50,14.30
2014,05,01,07,51,14.40
2014,05,01,07,52,14.50
2014,05,01,07,53,14.60
2014,05,01,07,54,14.70
2014,05,01,07,55,14.80
2014,05,01,07,56,14.90
2014,05,01,07,57,15.00
2014,05,01,07,58,15.00
2014,05,01,07,59,15.00
2014,05,01,08,00,15.10
2014,05,01,08,01,15.20
2014,05,01,08,02,15.30
2014,05,01,08,03,15.40
2014,05,01,08,04,15.50
2014,05,01,08,05,15.70
2014,05,01,08,06,15.80
2014,05,01,08,07,15.90
2014,05,01,08,08,16.00
2014,05,01,08,09,16.10
2014,05,01,08,10,16.20
2014,05,01,08,11,16.30
2014,05,01,08,12,16.30
2014,05,01,08,13,16.40
2014,05,01,08,14,16.40
2014,05,01,08,15,16.50
2014,05,01,08,16,16.50
2014,05,01,08,17,16.50
2014,05,01,08,18,16.60
2014,05,01,08,19,16.60
2014,05,01,08,20,16.60
2014,05,01,08,21,16.60
2014,05,01,08,22,16.60
2014,05,01,08,23,16.60
2014,05,01,08,24,16.60
2014,05,01,08,25,16.60
2014,05,01,08,26,16.60
2014,05,01,08,27,16.60
2014,05,01,08,28,16.60
2014,05,01,08,29,16.60
2014,05,01,08,30,16.60
2014,05,01,08,31,16.60
2014,05,01,08,32,16.60
2014,05,01,08,33,16.60
2014,05,01,08,34,16.60
2014,05,01,08,35,16.60
2014,05,01,08,36,16.60
2014,05,01,08,37,16.60
2014,05,01,08,38,16.60
2014,05,01,08,39,16.60
2014,05,01,08,40,16.60
2014,05,01,08,41,16.60
2014,05,01,08,42,16.60
2014,05,01,08,43,16.60
2014,05,01,08,44,16.60
2014,05,01,08,45,16.60
2014,05,01,08,46,16.60
2014,05,01,08,47,16.60
2014,05,01,08,48,16.70
2014,05,01,08,49,16.70
2014,05,01,08,50,16.70
2014,05,01,08,51,16.80
2014,05,01,08,52,16.80
2014,05,01,08,53,16.90
2014,05,01,08,54,17.00
2014,05,01,08,55,17.00
2014,05,01,08,56,17.10
2014,05,01,08,57,17.20
2014,05,01,08,58,17.20
2014,05,01,08,59,17.30
2014,05,01,09,00,17.30
2014,05,01,09,01,17.30
2014,05,01,09,02,17.30
2014,05,01,09,03,17.30
2014,05,01,09,04,17.30
2014,05,01,09,05,17.30
2014,05,01,09,06,17.30
2014,05,01,09,07,17.30
2014,05,01,09,08,17.30
2014,05,01,09,09,17.30
2014,05,01,09,10,17.30
2014,05,01,09,11,17.20
2014,05,01,09,12,17.20
2014,05,01,09,13,17.20
2014,05,01,09,14,17.20
2014,05,01,09,15,17.20
2014,05,01,09,16,17.30
2014,05,01,09,17,17.30
2014,05,01,09,18,17.30
2014,05,01,09,19,17.30
2014,05,01,09,20,17.30
2014,05,01,09,21,17.30
2014,05,01,09,22,17.40
2014,05,01,09,23,17.40
2014,05,01,09,24,17.50
2014,05,01,09,25,17.60
2014,05,01,09,26,17.50
2014,05,01,09,27,17.50
2014,05,01,09,28,17.40
2014,05,01,09,29,17.50
2014,05,01,09,30,17.50
2014,05,01,09,31,17.60
2014,05,01,09,32,17.60
2014,05,01,09,33,17.50
2014,05,01,09,34,17.50
2014,05,01,09,35,17.50
2014,05,01,09,36,17.50
2014,05,01,09,37,17.50
2014,05,01,09,38,17.50
2014,05,01,09,39,17.50
2014,05,01,09,40,17.60
2014,05,01,09,41,17.60
2014,05,01,09,42,17.60
2014,05,01,09,43,17.70
2014,05,01,09,44,17.70
2014,05,01,09,45,17.70
2014,05,01,09,46,17.70
2014,05,01,09,47,17.70
2014,05,01,09,48,17.80
2014,05,01,09,49,17.80
2014,05,01,09,50,17.80
2014,05,01,09,51,17.90
2014,05,01,09,52,17.90
2014,05,01,09,53,18.00
2014,05,01,09,54,18.00
2014,05,01,09,55,18.10
2014,05,01,09,56,18.10
2014,05,01,09,57,18.10
2014,05,01,09,58,18.10
2014,05,01,09,59,18.00
2014,05,01,10,00,18.00
2014,05,01,10,01,17.80
2014,05,01,10,02,17.80
2014,05,01,10,03,17.80
2014,05,01,10,04,17.80
2014,05,01,10,05,17.70
2014,05,01,10,06,17.60
2014,05,01,10,07,17.60
2014,05,01,10,08,17.50
2014,05,01,10,09,17.40
2014,05,01,10,10,17.30
2014,05,01,10,11,17.30
2014,05,01,10,12,17.20
2014,05,01,10,13,17.20
2014,05,01,10,14,17.20
2014,05,01,10,15,17.20
2014,05,01,10,16,17.20
2014,05,01,10,17,17.20
2014,05,01,10,18,17.20
2014,05,01,10,19,17.10
2014,05,01,10,20,17.20
2014,05,01,10,21,17.20
2014,05,01,10,22,17.20
2014,05,01,10,23,17.30
2014,05,01,10,24,17.30
2014,05,01,10,25,17.40
2014,05,01,10,26,17.50
2014,05,01,10,27,17.50
2014,05,01,10,28,17.60
2014,05,01,10,29,17.60
2014,05,01,10,30,17.60
2014,05,01,10,31,17.70
2014,05,01,10,32,17.80
2014,05,01,10,33,17.80
2014,05,01,10,34,17.80
2014,05,01,10,35,17.80
2014,05,01,10,36,17.80
2014,05,01,10,37,17.70
2014,05,01,10,38,17.70
2014,05,01,10,39,17.80
2014,05,01,10,40,17.80
2014,05,01,10,41,17.90
2014,05,01,10,42,18.10
2014,05,01,10,43,18.10
2014,05,01,10,44,18.20
2014,05,01,10,45,18.30
2014,05,01,10,46,18.40
2014,05,01,10,47,18.40
2014,05,01,10,48,18.50
2014,05,01,10,49,18.60
2014,05,01,10,50,18.70
2014,05,01,10,51,18.80
2014,05,01,10,52,18.90
2014,05,01,10,53,19.00
2014,05,01,10,54,19.10
2014,05,01,10,55,19.10
2014,05,01,10,56,19.20
2014,05,01,10,57,19.30
2014,05,01,10,58,19.40
2014,05,01,10,59,19.40
2014,05,01,11,00,19.50
2014,05,01,11,01,19.60
2014,05,01,11,02,19.60
2014,05,01,11,03,19.70
2014,05,01,11,04,19.80
2014,05,01,11,05,19.80
2014,05,01,11,06,19.80
2014,05,01,11,07,19.80
2014,05,01,11,08,19.70
2014,05,01,11,09,19.60
2014,05,01,11,10,19.50
2014,05,01,11,11,19.40
2014,05,01,11,12,19.30
2014,05,01,11,13,19.20
2014,05,01,11,14,19.00
2014,05,01,11,15,18.90
2014,05,01,11,16,18.90
2014,05,01,11,17,18.90
2014,05,01,11,18,18.90
2014,05,01,11,19,18.90
2014,05,01,11,20,18.90
2014,05,01,11,21,18.90
2014,05,01,11,22,18.90
2014,05,01,11,23,19.00
2014,05,01,11,24,19.00
2014,05,01,11,25,19.00
2014,05,01,11,26,19.00
2014,05,01,11,27,19.00
2014,05,01,11,28,18.90
2014,05,01,11,29,18.90
2014,05,01,11,30,18.80
2014,05,01,11,31,18.80
2014,05,01,11,32,18.70
2014,05,01,11,33,18.70
2014,05,01,11,34,18.60
2014,05,01,11,35,18.60
2014,05,01,11,36,18.50
2014,05,01,11,37,18.50
2014,05,01,11,38,18.50
2014,05,01,11,39,18.50
2014,05,01,11,40,18.60
2014,05,01,11,41,18.70
2014,05,01,11,42,18.80
2014,05,01,11,43,18.90
2014,05,01,11,44,18.90
2014,05,01,11,45,18.90
2014,05,01,11,46,18.90
2014,05,01,11,47,18.90
2014,05,01,11,48,18.90
2014,05,01,11,49,18.90
2014,05,01,11,50,19.00
2014,05,01,11,51,19.00
2014,05,01,11,52,19.00
2014,05,01,11,53,19.10
2014,05,01,11,54,19.20
2014,05,01,11,55,19.30
2014,05,01,11,56,19.30
2014,05,01,11,57,19.30
2014,05,01,11,58,19.40
2014,05,01,11,59,19.40
2014,05,01,12,00,19.40
2014,05,01,12,01,19.40
2014,05,01,12,02,19.40
2014,05,01,12,03,19.40
2014,05,01,12,04,19.30
2014,05,01,12,05,19.30
2014,05,01,12,06,19.20
2014,05,01,12,07,19.20
2014,05,01,12,08,19.30
2014,05,01,12,09,19.30
2014,05,01,12,10,19.30
2014,05,01,12,11,19.30
2014,05,01,12,12,19.30
2014,05,01,12,13,19.20
2014,05,01,12,14,19.10
2014,05,01,12,15,19.10
2014,05,01,12,16,19.10
2014,05,01,12,17,19.20
2014,05,01,12,18,19.30
2014,05,01,12,19,19.30
2014,05,01,12,20,19.40
2014,05,01,12,21,19.60
2014,05,01,12,22,19.60
2014,05,01,12,23,19.70
2014,05,01,12,24,19.80
2014,05,01,12,25,19.80
2014,05,01,12,26,19.90
2014,05,01,12,27,19.90
2014,05,01,12,28,19.90
2014,05,01,12,29,20.00
2014,05,01,12,30,20.00
2014,05,01,12,31,20.00
2014,05,01,12,32,20.10
2014,05,01,12,33,20.10
2014,05,01,12,34,20.10
2014,05,01,12,35,20.10
2014,05,01,12,36,20.10
2014,05,01,12,37,20.10
2014,05,01,12,38,20.20
2014,05,01,12,39,20.20
2014,05,01,12,40,20.20
2014,05,01,12,41,20.20
2014,05,01,12,42,20.20
2014,05,01,12,43,20.20
2014,05,01,12,44,20.20
2014,05,01,12,45,20.20
2014,05,01,12,46,20.20
2014,05,01,12,47,20.20
2014,05,01,12,48,20.20
2014,05,01,12,49,20.30
2014,05,01,12,50,20.30
2014,05,01,12,51,20.30
2014,05,01,12,52,20.20
2014,05,01,12,53,20.20
2014,05,01,12,54,20.20
2014,05,01,12,55,20.20
2014,05,01,12,56,20.20
2014,05,01,12,57,20.20
2014,05,01,12,58,20.20
2014,05,01,12,59,20.10
2014,05,01,13,00,20.10
2014,05,01,13,01,20.10
2014,05,01,13,02,20.10
2014,05,01,13,03,20.20
2014,05,01,13,04,20.30
2014,05,01,13,05,20.30
2014,05,01,13,06,20.30
2014,05,01,13,07,20.30
2014,05,01,13,08,20.30
2014,05,01,13,09,20.20
2014,05,01,13,10,20.20
2014,05,01,13,11,20.30
2014,05,01,13,12,20.30
2014,05,01,13,13,20.40
2014,05,01,13,14,20.50
2014,05,01,13,15,20.50
2014,05,01,13,16,20.60
2014,05,01,13,17,20.80
2014,05,01,13,18,20.90
2014,05,01,13,19,21.00
2014,05,01,13,20,21.10
2014,05,01,13,21,21.10
2014,05,01,13,22,21.20
2014,05,01,13,23,21.20
2014,05,01,13,24,21.10
2014,05,01,13,25,21.10
2014,05,01,13,26,21.10
2014,05,01,13,27,21.20
2014,05,01,13,28,21.20
2014,05,01,13,29,21.10
2014,05,01,13,30,21.10
2014,05,01,13,31,21.20
2014,05,01,13,32,21.20
2014,05,01,13,33,21.20
2014,05,01,13,34,21.30
2014,05,01,13,35,21.30
2014,05,01,13,36,21.30
2014,05,01,13,37,21.40
2014,05,01,13,38,21.50
2014,05,01,13,39,21.60
2014,05,01,13,40,21.60
2014,05,01,13,41,21.70
2014,05,01,13,42,21.70
2014,05,01,13,43,21.70
2014,05,01,13,44,21.60
2014,05,01,13,45,21.50
2014,05,01,13,46,21.50
2014,05,01,13,47,21.40
2014,05,01,13,48,21.30
2014,05,01,13,49,21.40
2014,05,01,13,50,21.50
2014,05,01,13,51,21.50
2014,05,01,13,52,21.60
2014,05,01,13,53,21.60
2014,05,01,13,54,21.50
2014,05,01,13,55,21.50
2014,05,01,13,56,21.50
2014,05,01,13,57,21.60
2014,05,01,13,58,21.70
2014,05,01,13,59,21.70
2014,05,01,14,00,21.80
2014,05,01,14,01,21.70
2014,05,01,14,02,21.70
2014,05,01,14,03,21.70
2014,05,01,14,04,21.70
2014,05,01,14,05,21.80
2014,05,01,14,06,21.80
2014,05,01,14,07,21.90
2014,05,01,14,08,21.90
2014,05,01,14,09,22.00
2014,05,01,14,10,22.00
2014,05,01,14,11,21.90
2014,05,01,14,12,21.80
2014,05,01,14,13,21.70
2014,05,01,14,14,21.70
2014,05,01,14,15,21.70
2014,05,01,14,16,21.70
2014,05,01,14,17,21.70
2014,05,01,14,18,21.70
2014,05,01,14,19,21.80
2014,05,01,14,20,21.80
2014,05,01,14,21,21.80
2014,05,01,14,22,21.90
2014,05,01,14,23,21.90
2014,05,01,14,24,21.90
2014,05,01,14,25,21.90
2014,05,01,14,26,21.90
2014,05,01,14,27,21.90
2014,05,01,14,28,22.00
2014,05,01,14,29,22.00
2014,05,01,14,30,22.10
2014,05,01,14,31,22.20
2014,05,01,14,32,22.40
2014,05,01,14,33,22.50
2014,05,01,14,34,22.50
2014,05,01,14,35,22.50
2014,05,01,14,36,22.50
2014,05,01,14,37,22.60
2014,05,01,14,38,22.70
2014,05,01,14,39,22.80
2014,05,01,14,40,23.00
2014,05,01,14,41,23.10
2014,05,01,14,42,23.10
2014,05,01,14,43,23.20
2014,05,01,14,44,23.20
2014,05,01,14,45,23.10
2014,05,01,14,46,23.00
2014,05,01,14,47,23.00
2014,05,01,14,48,22.90
2014,05,01,14,49,22.90
2014,05,01,14,50,22.90
2014,05,01,14,51,22.90
2014,05,01,14,52,22.90
2014,05,01,14,53,23.00
2014,05,01,14,54,23.00
2014,05,01,14,55,23.10
2014,05,01,14,56,23.20
2014,05,01,14,57,23.30
2014,05,01,14,58,23.40
2014,05,01,14,59,23.50
2014,05,01,15,00,23.60
2014,05,01,15,01,23.60
2014,05,01,15,02,23.60
2014,05,01,15,03,23.50
2014,05,01,15,04,23.40
2014,05,01,15,05,23.40
2014,05,01,15,06,23.40
2014,05,01,15,07,23.40
2014,05,01,15,08,23.40
2014,05,01,15,09,23.60
2014,05,01,15,10,23.70
2014,05,01,15,11,23.90
2014,05,01,15,12,24.20
2014,05,01,15,13,24.40
2014,05,01,15,14,24.60
2014,05,01,15,15,24.80
2014,05,01,15,16,24.90
2014,05,01,15,17,25.00
2014,05,01,15,18,25.10
2014,05,01,15,19,25.10
2014,05,01,15,20,25.10
2014,05,01,15,21,25.20
2014,05,01,15,22,25.30
2014,05,01,15,23,25.30
2014,05,01,15,24,25.30
2014,05,01,15,25,25.20
2014,05,01,15,26,25.20
2014,05,01,15,27,25.20
2014,05,01,15,28,25.20
2014,05,01,15,29,25.30
2014,05,01,15,30,25.30
2014,05,01,15,31,25.30
2014,05,01,15,32,25.30
2014,05,01,15,33,25.40
2014,05,01,15,34,25.40
2014,05,01,15,35,25.40
2014,05,01,15,36,25.50
2014,05,01,15,37,25.60
2014,05,01,15,38,25.60
2014,05,01,15,39,25.60
2014,05,01,15,40,25.60
2014,05,01,15,41,25.50
2014,05,01,15,42,25.40
2014,05,01,15,43,25.50
2014,05,01,15,44,25.50
2014,05,01,15,45,25.50
2014,05,01,15,46,25.60
2014,05,01,15,47,25.70
2014,05,01,15,48,25.60
2014,05,01,15,49,25.60
2014,05,01,15,50,25.60
2014,05,01,15,51,25.60
2014,05,01,15,52,25.50
2014,05,01,15,53,25.40
2014,05,01,15,54,25.40
2014,05,01,15,55,25.40
2014,05,01,15,56,25.40
2014,05,01,15,57,25.40
2014,05,01,15,58,25.30
2014,05,01,15,59,25.20
2014,05,01,16,00,25.20
2014,05,01,16,01,25.20
2014,05,01,16,02,25.20
2014,05,01,16,03,25.20
2014,05,01,16,04,25.10
2014,05,01,16,05,25.10
2014,05,01,16,06,25.10
2014,05,01,16,07,25.10
2014,05,01,16,08,25.10
2014,05,01,16,09,25.20
2014,05,01,16,10,25.20
2014,05,01,16,11,25.20
2014,05,01,16,12,25.30
2014,05,01,16,13,25.30
2014,05,01,16,14,25.30
2014,05,01,16,15,25.20
2014,05,01,16,16,25.20
2014,05,01,16,17,25.20
2014,05,01,16,18,25.20
2014,05,01,16,19,25.20
2014,05,01,16,20,25.20
2014,05,01,16,21,25.20
2014,05,01,16,22,25.20
2014,05,01,16,23,25.20
2014,05,01,16,24,25.20
2014,05,01,16,25,25.20
2014,05,01,16,26,25.30
2014,05,01,16,27,25.40
2014,05,01,16,28,25.40
2014,05,01,16,29,25.50
2014,05,01,16,30,25.50
2014,05,01,16,31,25.50
2014,05,01,16,32,25.50
2014,05,01,16,33,25.50
2014,05,01,16,34,25.60
2014,05,01,16,35,25.60
2014,05,01,16,36,25.50
2014,05,01,16,37,25.50
2014,05,01,16,38,25.50
2014,05,01,16,39,25.40
2014,05,01,16,40,25.50
2014,05,01,16,41,25.60
2014,05,01,16,42,25.70
2014,05,01,16,43,25.80
2014,05,01,16,44,25.90
2014,05,01,16,45,25.90
2014,05,01,16,46,25.90
2014,05,01,16,47,25.90
2014,05,01,16,48,25.80
2014,05,01,16,49,25.70
2014,05,01,16,50,25.70
2014,05,01,16,51,25.60
2014,05,01,16,52,25.60
2014,05,01,16,53,25.60
2014,05,01,16,54,25.60
2014,05,01,16,55,25.60
2014,05,01,16,56,25.60
2014,05,01,16,57,25.70
2014,05,01,16,58,25.80
2014,05,01,16,59,25.90
2014,05,01,17,00,25.90
2014,05,01,17,01,25.80
2014,05,01,17,02,25.70
2014,05,01,17,03,25.70
2014,05,01,17,04,25.60
2014,05,01,17,05,25.60
2014,05,01,17,06,25.60
2014,05,01,17,07,25.60
2014,05,01,17,08,25.70
2014,05,01,17,09,25.80
2014,05,01,17,10,25.90
2014,05,01,17,11,25.90
2014,05,01,17,12,25.90
2014,05,01,17,13,25.90
2014,05,01,17,14,25.90
2014,05,01,17,15,25.90
2014,05,01,17,16,25.90
2014,05,01,17,17,25.90
2014,05,01,17,18,25.90
2014,05,01,17,19,26.00